Location: Proctor
(47.8934°N, 114.3048°W)
Time: 01:13:38
(UTC+00:00)

POLYITAN 1 - Pass Details

Date: 29 June 2022
Orbit: 586 x 605 km, 98.0° (Epoch: 15 August)

Event Time Altitude Azimuth Distance (km) Brightness Sun altitude
Rises 10:37:06 0° 2° (N) 2,857 ? -8.6°
Reaches altitude 10° 10:39:38 10° 347° (NNW) 1,952 ? -8.4°
Maximum altitude 10:42:54 22° 296° (WNW) 1,330 ? -8.0°
Drops below altitude 10° 10:46:10 10° 246° (WSW) 1,949 ? -7.6°
Enters shadow 10:46:38 - 242° (WSW) 2,100 ? -7.6°
